This is the latest recevied weather packets stored in our database for station/object KC5TIL-3. If no packets are shown the sender has not sent any weather packets the latest 10 day(s).
| Time | Temp. | Humidity | Pressure | Rain* | Wind** | Luminosity | Snow |
|---|---|---|---|---|---|---|---|
| 1787585480 | 34.44° C | 14% | 1011.8 hPa | 0 mm | 3.13 m/s, 185° | - | - |
| 1787585179 | 34.44° C | 14% | 1011.8 hPa | 0 mm | 4.02 m/s, 234° | - | - |
| 1787584881 | 33.89° C | 14% | 1011.8 hPa | 0 mm | 3.58 m/s, 198° | - | - |
| 1787584582 | 33.89° C | 14% | 1011.8 hPa | 0 mm | 3.58 m/s, 197° | - | - |
| 1787584281 | 33.33° C | 14% | 1011.8 hPa | 0 mm | 3.13 m/s, 223° | - | - |
| 1787583983 | 33.33° C | 14% | 1011.8 hPa | 0 mm | 5.36 m/s, 210° | - | - |
| 1787583685 | 33.33° C | 14% | 1011.8 hPa | 0 mm | 2.68 m/s, 276° | - | - |
| 1787583383 | 32.78° C | 14% | 1011.8 hPa | 0 mm | 2.24 m/s, 207° | - | - |
| 1787583085 | 32.78° C | 14% | 1011.8 hPa | 0 mm | 4.47 m/s, 220° | - | - |
| 1787582787 | 32.22° C | 17% | 1011.8 hPa | 0 mm | 3.13 m/s, 201° | - | - |
| 1787582486 | 32.22° C | 17% | 1011.8 hPa | 0 mm | 4.02 m/s, 215° | - | - |
| 1787582188 | 32.22° C | 17% | 1011.8 hPa | 0 mm | 3.58 m/s, 206° | - | - |
| 1787581884 | 32.22° C | 17% | 1011.8 hPa | 0 mm | 2.68 m/s, 200° | - | - |
| 1787581578 | 32.22° C | 17% | 1011.8 hPa | 0 mm | 2.68 m/s, 102° | - | - |
| 1787581275 | 31.67° C | 17% | 1011.8 hPa | 0 mm | 3.13 m/s, 267° | - | - |
| 1787580977 | 31.67° C | 17% | 1011.8 hPa | 0 mm | 3.58 m/s, 181° | - | - |
| 1787580676 | 31.11° C | 18% | 1011.8 hPa | 0 mm | 4.47 m/s, 192° | - | - |
| 1787580378 | 31.11° C | 18% | 1011.8 hPa | 0 mm | 3.58 m/s, 225° | - | - |
| 1787580079 | 31.11° C | 18% | 1011.8 hPa | 0 mm | 2.68 m/s, 180° | - | - |
| 1787579778 | 30.56° C | 18% | 1011.8 hPa | 0 mm | 4.47 m/s, 235° | - | - |
| 1787579480 | 30.56° C | 18% | 1011.8 hPa | 0 mm | 2.68 m/s, 234° | - | - |
| 1787579182 | 30° C | 19% | 1011.8 hPa | 0 mm | 2.68 m/s, 223° | - | - |
| 1787578880 | 30° C | 19% | 1011.8 hPa | 0 mm | 3.13 m/s, 222° | - | - |
| 1787578582 | 29.44° C | 19% | 1011.8 hPa | 0 mm | 4.02 m/s, 223° | - | - |
| 1787578284 | 30° C | 19% | 1011.8 hPa | 0 mm | 2.24 m/s, 258° | - | - |
* Rain latest hour (hover to see other rain measurements)
** Current wind speed in m/s (hover to see current wind gust speed)